#timestamp,LO_Frequency,Hit,StdDev 
1570644015.5,286046998.7,N
1570644035.4,286046999.3,N
1570644055.2,286046996.8,N
1570644075.0,286046999.3,N
1570644075.9,286046999.3,N
1570644095.8,286046998.5,N
1570644115.6,286047000.9,N
1570644135.4,286046998.5,N
1570644155.3,286046997.1,N
1570644175.1,286046998.1,N
1570644195.9,286046998.2,N
1570644215.7,286046998.4,N
1570644235.5,286047000.8,N
1570644255.4,286047000.3,N
1570644275.2,286047000.9,N
1570644295.0,286046999.1,N
1570644295.9,286046999.1,N
1570644315.8,286046998.3,N
1570644335.6,286046996.5,N
1570644355.5,286046997.3,N
1570644375.3,286046997.0,N
1570644395.1,286046998.4,N
1570644415.9,286047001.2,N
1570644435.7,286046998.3,N
1570644455.6,286046997.2,N
1570644475.4,286046996.7,N
1570644495.2,286046995.3,Y
1570644515.1,286046999.2,P
1570644516.0,286046999.2,N
1570644535.8,286047000.7,N
1570644555.6,286047001.0,N
1570644575.5,286046999.3,N
1570644595.3,286046998.9,N
1570644615.2,286046998.7,N
1570644635.9,286046998.4,N
1570644655.7,286046998.9,N
1570644675.6,286046998.3,N
1570644695.4,286046997.8,N
1570644715.3,286046997.7,N
1570644735.1,286046996.8,Y
1570644736.0,286046996.8,P
1570644755.8,286046998.8,N
1570644775.7,286046999.3,N
1570644795.5,286046998.6,N
1570644815.4,286047002.4,N
1570644835.2,286047001.2,N
1570644855.0,286046998.2,N
1570644855.9,286046998.2,N
1570644875.8,286046998.5,N
1570644895.6,286046999.5,N
1570644915.4,286046998.4,N
1570644935.3,286047001.0,N
1570644955.1,286047000.8,N
1570644975.9,286046998.6,N
1570644995.7,286046998.8,N
1570645015.5,286046998.4,N
1570645035.4,286046998.2,N
1570645055.2,286047000.4,N
1570645075.1,286047000.7,N
1570645076.0,286047000.7,N
1570645095.8,286047001.1,N
1570645115.6,286047000.8,N
1570645135.5,286047000.5,N
1570645155.3,286046998.1,N
1570645175.1,286047001.0,N
1570645195.9,286047000.4,N
1570645215.7,286046999.0,N
1570645235.6,286046996.6,N
1570645255.4,286046999.6,N
1570645275.2,286046998.8,N
1570645295.1,286046996.9,N
1570645296.0,286046996.9,N
1570645315.8,286046999.3,N
1570645335.7,286046996.5,N
1570645355.5,286046998.5,N
1570645375.3,286046998.9,N
1570645395.2,286046999.0,N
1570645415.0,286046998.1,N
1570645415.9,286046998.1,N
1570645435.8,286047000.8,N
1570645455.6,286046998.3,N
1570645475.4,286046996.5,N
1570645495.3,286046996.6,N
1570645515.1,286046998.5,N
1570645535.8,286047000.4,N
1570645555.7,286047000.2,N
1570645575.5,286047000.5,N
1570645595.4,286047000.6,N
1570645615.2,286047000.1,N
1570645635.0,286047000.9,N
1570645635.9,286047000.9,N
1570645655.8,286047000.9,N
1570645675.6,286047000.5,N
1570645695.4,286047002.8,N
1570645715.3,286047000.1,N
1570645735.1,286047002.8,N
1570645755.9,286046999.7,N
1570645775.7,286047003.8,N
1570645795.5,286047003.2,N
1570645815.4,286047005.6,N
1570645835.2,286047005.5,N
1570645855.1,286047005.9,N
1570645856.0,286047005.9,N
1570645875.8,286047007.2,N
1570645895.6,286047007.0,N
1570645915.5,286047005.3,N
1570645935.3,286047006.2,N
1570645955.1,286047009.0,N
1570645975.9,286047007.3,N
1570645995.7,286047008.8,N
1570646015.6,286047006.1,N
1570646035.4,286047006.8,N
1570646055.2,286047008.7,N
1570646075.1,286047009.2,N
1570646076.0,286047009.2,N
1570646095.8,286047008.6,N
1570646115.7,286047008.6,N
1570646135.5,286047006.8,N
1570646155.3,286047010.4,Y
1570646175.2,286047005.0,P
1570646195.0,286047003.0,P
1570646195.9,286047003.0,P
1570646215.8,286047005.0,Y
1570646235.6,286047001.1,P
1570646255.4,286047002.2,N
1570646275.3,286047003.3,N
1570646295.1,286047004.4,Y
1570646315.9,286046998.1,P
1570646335.7,286047000.3,N
1570646355.5,286047000.2,N
1570646375.4,286046998.3,N
1570646395.2,286047000.5,N
1570646415.0,286047001.1,N
1570646415.9,286047001.1,N
1570646435.8,286047000.1,N
1570646455.6,286046999.7,N
1570646475.5,286047002.2,N
1570646495.3,286047001.7,N
1570646515.1,286047003.5,N
1570646535.9,286047005.4,Y
1570646555.7,286047004.3,P
1570646575.5,286047003.9,N
1570646595.4,286047002.9,N
1570646615.2,286047004.4,Y
1570646635.1,286047000.4,P
1570646636.0,286047000.4,N
1570646655.8,286046999.8,N
1570646675.6,286047000.4,N
1570646695.5,286047000.2,N
1570646715.3,286047002.7,N
1570646735.1,286047000.5,N
1570646755.9,286047000.9,N
1570646775.7,286046999.7,N
1570646795.6,286047001.3,N
1570646815.4,286047004.2,Y
1570646835.2,286047003.7,P
1570646855.1,286047003.5,N
1570646856.0,286047003.5,N
1570646875.8,286047003.0,N
1570646895.7,286047001.4,N
1570646915.5,286047003.7,Y
1570646935.3,286047000.2,P
1570646955.2,286047002.8,N
1570646975.0,286047001.9,N
1570646975.9,286047001.9,N
1570646995.8,286047002.2,N
1570647015.6,286047003.9,Y
1570647035.4,286047001.2,P
1570647055.3,286047002.3,P
1570647075.1,286047004.1,P
1570647095.9,286047004.1,Y
1570647115.7,286047000.4,P
1570647135.5,286046998.6,N
1570647155.4,286046998.6,N
1570647175.2,286046998.1,N
1570647195.0,286047000.1,N
1570647195.9,286047000.1,N
1570647215.8,286047002.0,N
1570647235.6,286047000.2,N
1570647255.5,286047002.2,N
1570647275.3,286047002.3,N
1570647295.1,286047002.7,N
1570647315.9,286047000.0,N
1570647335.7,286047002.4,N
1570647355.6,286047003.0,N
1570647375.4,286047006.0,Y
1570647395.2,286047003.3,P
1570647415.1,286047003.6,N
1570647416.0,286047003.6,N
1570647435.8,286047003.6,Y
1570647455.7,286047001.9,P
1570647475.5,286047002.2,P
1570647495.3,286047003.5,P
1570647515.2,286047004.3,Y
1570647535.0,286047002.1,P
1570647535.9,286047002.1,P
1570647555.7,286047001.7,P
1570647575.6,286047002.7,Y
1570647595.4,286047001.6,P
